Regional Weather Roundup
Issued by NWS

Home | Current Version | Previous Version | Text Only | Print | Product List | Glossary Off
Versions: 1 2 3 4 5 6 7 8 9 10 11 12 13 14 15 16 17 18 19 20 21 22 23 24 25 26 27 28 29 30 31 32 33 34 35 36 37 38 39 40 41 42 43 44 45 46 47 48 49 50

000
ASUS43 KDMX 291903
RWRIA

WEATHER ROUNDUP FOR IOWA
NATIONAL WEATHER SERVICE DES MOINES IA
200 PM CDT MON AUG 29 2016

NOTE: "FAIR" INDICATES FEW OR NO CLOUDS BELOW 12,000 FEET WITH NO
SIGNIFICANT WEATHER AND/OR OBSTRUCTIONS TO VISIBILITY.

* - THESE STATIONS ARE NOT NWS STATIONS...THUS NOT UNDER NWS
QUALITY CONTROL.  THEY ALSO DO NOT REPORT WEATHER SUCH
AS PRECIPITATION OR FOG.

IAZ001>003-012>014-020>022-031>034-043>046-292000-
   NORTHWEST IOWA

CITY           SKY/WX    TMP DP  RH WIND       PRES   REMARKS
CARROLL *      MOSUNNY   77  73  88 E3        30.21F
CHEROKEE *     CLOUDY    81  71  72 CALM      30.21S HX  84
DENISON *      MOSUNNY   79  72  78 CALM      30.19S HX  82
LE MARS *      PTSUNNY   82  70  65 CALM      30.20F HX  86
ORANGE CITY *  CLOUDY    79  70  73 S5        30.22F HX  81
SHELDON *      SUNNY     81  72  74 S8G15     30.19F HX  84
SIOUX CITY     CLOUDY    79  71  76 CALM      30.19F HX  82
SPENCER        MOSUNNY   85  70  60 S8        30.21F HX  89
STORM LAKE *   CLOUDY    81  73  78 VRB6      30.22S HX  85
$$

IAZ055>058-069>071-079>083-090>094-292000-
   SOUTHWEST IOWA

CITY           SKY/WX    TMP DP  RH WIND       PRES   REMARKS
ATLANTIC *     SUNNY     84  72  65 E6        30.19F HX  89
AUDUBON *      PTSUNNY   82  75  78 E5        30.21F HX  89
CLARINDA *       N/A     86  75  70 MISG      30.19F HX  95
COUNCIL BLFS * CLOUDY    84  75  74 SE6       30.18F HX  92
CRESTON *      CLOUDY    84  75  74 SE5       30.21F HX  92
HARLAN  *      MOSUNNY   84  72  65 SE3       30.22F HX  89
LAMONI         MOSUNNY   86  73  65 S6        30.18F HX  93
RED OAK *      MOSUNNY   84  75  74 VRB5      30.18F HX  92
SHENANDOAH *   CLOUDY    86 -27   1 CALM      30.18F HX  81
$$

IAZ047>049-059>061-072>074-084-292000-
   CENTRAL IOWA

CITY           SKY/WX    TMP DP  RH WIND       PRES   REMARKS
AMES           CLOUDY    83  76  79 VRB7      30.19F HX  91
ANKENY *         N/A    N/A N/A N/A MISG        N/A
BOONE *        CLOUDY    81  72  74 CALM      30.20F HX  84
CHARITON *       N/A     81  73  78 MISG      30.19F HX  85
DES MOINES     CLOUDY    85  73  67 S5        30.18F HX  91
GRINNELL*      CLOUDY    79  73  80 E3        30.20F HX  83
KNOXVILLE *    MOSUNNY   82  73  74 E8        30.18F HX  88
MARSHALLTOWN   CLOUDY    79  75  87 E3        30.19F HX  83
NEWTON *       CLOUDY    81  72  74 VRB3      30.19F HX  84
PELLA *        CLOUDY    83  69  63 SE5       30.20  HX  86
PERRY *          N/A     83  75  76 CALM      30.20F HX  91
$$

IAZ004>006-015-016-023>025-035-036-292000-
   NORTH CENTRAL IOWA

CITY           SKY/WX    TMP DP  RH WIND       PRES   REMARKS
ALGONA *       CLOUDY    79  70  73 SE13      30.22S HX  81
ESTHERVILLE    MOSUNNY   81  73  76 S12       30.20F HX  86
FORT DODGE *   CLOUDY    73  66  78 NE15      30.22F
MASON CITY     LGT RAIN  71  66  84 S9        30.24F
FOREST CITY *    N/A    N/A N/A N/A MISG        N/A
WEBSTER CITY * MOSUNNY   84  72  65 NW5       30.19F HX  89
IOWA FALLS *     N/A     84  73  70 CALM      30.22F HX  90
$$

IAZ007>011-017>019-026>030-037>042-050>054-066-292000-
   NORTHEAST IOWA

CITY           SKY/WX    TMP DP  RH WIND       PRES   REMARKS
CEDAR RAPIDS   MOSUNNY   82  75  79 CALM      30.20F HX  89
CHARLES CITY * PTSUNNY   79  73  83 CALM      30.23S HX  82
CLINTON *      SUNNY     85  75  72 VRB5      30.20F HX  93
DECORAH *      CLOUDY    79  73  83 CALM      30.22F HX  82
DUBUQUE        CLOUDY    81  71  71 SE5       30.23F HX  85
MONTICELLO *   MOSUNNY   79  73  83 W10       30.21F HX  82
OELWEIN *      CLOUDY    77  73  88 SE5       30.23F
WATERLOO       PTSUNNY   80  72  76 SE6       30.19F HX  84
$$

IAZ064-065-067-068-078-292000-
   EAST CENTRAL IOWA

CITY           SKY/WX    TMP DP  RH WIND       PRES   REMARKS
DAVENPORT      MOSUNNY   84  74  71 E6        30.20F HX  91
IOWA CITY      MOSUNNY   86  74  67 E5        30.20F HX  94
MT. PLEASANT * PTSUNNY   92  74  55 CALM      30.18F HX 101
QUAD CITIES    MOSUNNY   82  74  76 E8        30.19F HX  88
$$

IAZ062-063-075>077-085>089-095>099-292000-
   SOUTHEAST IOWA

CITY           SKY/WX    TMP DP  RH WIND       PRES   REMARKS
BURLINGTON     SUNNY     88  72  58 SW5       30.18F HX  94
FAIRFIELD *    MOSUNNY   86  73  66 E5        30.18F HX  93
FORT MADISON *   N/A     88  73  62 CALM      30.19F HX  96
KEOKUK *       MOSUNNY   88  73  62 CALM      30.17F HX  96
OSKALOOSA *      N/A     76  73  90 NE7       30.20F
CENTERVILLE *    N/A     86  73  66 SE3       30.20F HX  93
OTTUMWA        MOSUNNY   79  71  76 N7        30.19F HX  82
WASHINGTON *   MOSUNNY   88  75  66 CALM      30.20F HX  97
$$

ABBREVIATIONS USED IN REMARKS
   TC - TEMPERATURES IN CELSIUS
  WCI - WIND CHILL INDEX
   HX - HEAT INDEX
  VSB - VISIBILITY
$$





USA.gov is the U.S. government's official web portal to all federal, state and local government web resources and services.